Home   Weather   Kirkenes   Past weeks
Flag for Norway

Past Weather in Kirkenes, Norway — Yesterday and Last 2 Weeks

Now
44 °F

Quite cool.


Feels Like: 42 °F
Forecast: 59 / 50 °F
Wind: 3 mph from Southeast

Location: Kirkenes Lufthavn

Current Time: Jul 18, 2019 at 5:15:49 am

Latest Report: Jul 18, 2019 at 4:00 am


Visibility: N/A

Pressure: 30.02 "Hg

Humidity: 92%

Dew Point: 42 °F

Location of KirkenesLocation

Past Weather in Kirkenes — Graph

°F

Kirkenes Temperature Yesterday

Maximum temperature yesterday: 49 °F (at 4:00 pm)
Minimum temperature yesterday: 44 °F (at 1:00 am)
Average temperature yesterday: 46 °F

High & Low Weather Summary for the Past Weeks

 TemperatureHumidityPressure
High56 °F (Jul 9, 10:00 am)99% (Jul 6, 9:00 am)30.15 "Hg (Jul 6, 9:00 am)
Low41 °F (Jul 10, 5:00 am)53% (Jul 9, 10:00 am)29.44 "Hg (Jul 4, 8:00 am)
Average46 °F84%29.91 "Hg
* Reported Jul 3 3:00 am — Jul 18 3:00 am, Kirkenes. Weather by CustomWeather, © 2019

Note: Actual official high and low records may vary slightly from our data, if they occured in-between our weather recording intervals... More about our weather records

Advertising

Kirkenes Weather History for the Previous 24 Hours

Scroll right to see more
 ConditionsComfort  
Time TempWeatherWind HumidityBarometerVisibility
3:00 am
Thu, Jul 18
42 °FQuite cool.3 mph93%30.01 "HgN/A
2:00 am43 °FQuite cool.3 mph87%29.99 "HgN/A
1:00 am43 °FQuite cool.2 mph85%29.98 "HgN/A
12:00 am44 °FQuite cool.3 mph84%29.96 "HgN/A
11:00 pm
Wed, Jul 17
45 °FCool.5 mph85%29.94 "HgN/A
10:00 pm46 °FCool.5 mph82%29.93 "HgN/A
9:00 pm48 °FCool.5 mph84%29.91 "HgN/A
8:00 pm48 °FCool.5 mph85%29.90 "HgN/A
7:00 pm48 °FCool.5 mph84%29.89 "HgN/A
6:00 pm49 °FCool.5 mph88%29.88 "HgN/A
5:00 pm49 °FCool.3 mph84%29.88 "HgN/A
4:00 pm49 °FCool.5 mph88%29.88 "HgN/A
3:00 pm48 °FCool.3 mph84%29.88 "HgN/A
2:00 pm47 °FCool.5 mph88%29.88 "HgN/A
1:00 pm47 °FCool.6 mph87%29.89 "HgN/A
12:00 pm46 °FCool.5 mph88%29.89 "HgN/A
11:00 am46 °FCool.6 mph87%29.90 "HgN/A
10:00 am45 °FCool.5 mph89%29.91 "HgN/A
9:00 am45 °FCool.5 mph90%29.91 "HgN/A
8:00 am45 °FCool.2 mph94%29.93 "HgN/A
7:00 am45 °FQuite cool.5 mph92%29.94 "HgN/A
6:00 am45 °FQuite cool.5 mph94%29.96 "HgN/A
5:00 am45 °FQuite cool.6 mph95%29.97 "HgN/A
Weather by CustomWeather, © 2019

See weather overview